Location: Whitehorse
(60.7170°N, 135.0500°W)
Time: 20:32:52
(UTC-07:00)

SL-16 R/B - Visible Passes

Search period start: 22 July 2014 00:00
Search period end: 01 August 2014 00:00
Orbit: 841 x 849 km, 71.0° (Epoch: 21 July)

Date Brightness Start Highest point End Pass type
(mag) Time Alt. Az. Time Alt. Az. Time Alt. Az.
22 Jul 2.5 01:38:46 10° NW 01:44:20 58° WSW 01:49:50 10° SSE visible
22 Jul 4.0 03:24:03 10° WNW 03:27:24 16° W 03:30:44 10° SW visible
23 Jul 2.4 01:24:48 10° NW 01:30:23 59° WSW 01:35:49 11° SSE visible
23 Jul 4.0 03:10:03 10° WNW 03:13:28 17° W 03:16:53 10° SW visible
24 Jul 2.4 01:10:50 10° NW 01:16:26 60° WSW 01:21:51 11° SSE visible
24 Jul 4.0 02:56:02 10° WNW 02:59:32 17° W 03:03:02 10° SW visible
25 Jul 2.4 00:56:53 10° NW 01:02:29 61° WSW 01:07:56 11° SSE visible
25 Jul 4.0 02:42:02 10° WNW 02:45:37 17° W 02:49:11 10° SW visible
26 Jul 2.4 00:42:55 10° NW 00:48:32 63° WSW 00:54:02 11° SSE visible
26 Jul 4.0 02:28:02 10° WNW 02:31:41 18° W 02:35:19 10° SW visible
27 Jul 2.4 00:28:57 10° NW 00:34:35 64° WSW 00:40:11 10° SSE visible
27 Jul 4.0 02:14:02 10° WNW 02:17:45 18° W 02:21:28 10° SW visible
28 Jul 2.4 00:15:00 10° NW 00:20:38 65° WSW 00:26:16 10° SSE visible
28 Jul 4.0 02:00:02 10° WNW 02:03:50 19° W 02:07:36 10° SW visible
29 Jul 2.4 00:01:02 10° NW 00:06:42 66° WSW 00:12:19 10° SSE visible
29 Jul 4.0 01:46:03 10° WNW 01:49:54 19° W 01:53:45 10° SW visible
29 Jul 2.4 23:47:05 10° NW 23:52:45 68° WSW 23:58:23 10° SSE visible
30 Jul 4.0 01:32:03 10° WNW 01:35:58 19° W 01:39:53 10° SW visible
30 Jul 2.4 23:33:07 10° NW 23:38:48 69° SW 23:44:26 10° SSE visible
31 Jul 4.0 01:18:04 10° WNW 01:22:03 20° WSW 01:26:01 10° SW visible
